User: anonymous   Login
Location: Quebec
(46.8000°N, 71.2500°W)
Time: 15:38:49
(UTC-05:00)
Language:

Tiangong 1 - Orbit

View from above orbital plane
View from above orbital plane
View from above satellite
View from above satellite

Ground track
Ground track

The orbit data is extracted from the following two-line orbital elements,

1 37820U 11053A   17350.51240497  .00053339  93711-5  13452-3 0  9995
2 37820  42.7521 152.4132 0020153 306.8882 162.1500 15.95133259356919
Epoch (UTC): 16 December 2017 12:17:51
Eccentricity: 0.0020153
inclination: 42.7521°
perigee height: 274 km
apogee height: 301 km
right ascension of ascending node: 152.4132°
argument of perigee: 306.8882°
revolutions per day: 15.95133259
mean anomaly at epoch: 162.1500°
orbit number at epoch: 35691

The dashed part of the orbit path shows where the satellite is in the earth's shadow,  

DLR